| time (UTC) | temp F | wind direction | speed knots | gust knots | rain 1hr in | rain 24hr in | rain mn in | humidity % | barometer mb |
| 20260509043009 | 0 | 284.2 | 221.6 | 0.00 | 0.00 | 0.00 | 1010.8 | ||
| 20260509041506 | 0 | 284.2 | 221.6 | 0.00 | 0.00 | 0.00 | 1011.0 | ||
| 20260509040002 | 0 | 284.2 | 221.6 | 0.00 | 0.00 | 0.00 | 1011.0 | ||
| 20260509034602 | 0 | 284.2 | 221.6 | 0.00 | 0.00 | 0.00 | 1011.1 | ||
| 20260509033004 | 0 | 284.2 | 221.6 | 0.00 | 0.00 | 0.00 | 1011.3 | ||
| 20260509031502 | 0 | 284.2 | 221.6 | 0.00 | 0.00 | 0.00 | 1011.2 | ||
| 20260509030002 | 0 | 284.2 | 221.6 | 0.00 | 0.00 | 0.00 | 1011.2 | ||
| 20260509024502 | 0 | 284.2 | 221.6 | 0.00 | 0.00 | 0.00 | 1011.0 | ||
| 20260509023004 | 0 | 284.2 | 221.6 | 0.00 | 0.00 | 0.00 | 1011.1 | ||
| 20260509021502 | 0 | 284.2 | 221.6 | 0.00 | 0.00 | 0.00 | 1010.9 | ||
| 20260509020002 | 0 | 284.2 | 221.6 | 0.00 | 0.00 | 0.00 | 1010.7 | ||
| 20260509014502 | 0 | 284.2 | 221.6 | 0.00 | 0.00 | 0.00 | 1010.8 | ||
| 20260509013004 | 0 | 284.2 | 221.6 | 0.00 | 0.00 | 0.00 | 1010.3 | ||
| 20260509011502 | 0 | 284.2 | 221.6 | 0.00 | 0.00 | 0.00 | 1010.3 | ||
| 20260509010003 | 0 | 284.2 | 221.6 | 0.00 | 0.00 | 0.00 | 1010.1 | ||
| 20260509004501 | 0 | 284.2 | 221.6 | 0.00 | 0.00 | 0.00 | 1009.9 | ||
| 20260509003012 | 0 | 284.2 | 221.6 | 0.00 | 0.00 | 0.00 | 1009.7 | ||
| 20260509001502 | 0 | 284.2 | 221.6 | 0.00 | 0.00 | 0.00 | 1009.7 | ||
| 20260509000002 | 0 | 284.2 | 221.6 | 0.00 | 0.00 | 0.00 | 1009.5 | ||
| 20260508234502 | 0 | 284.2 | 221.6 | 0.00 | 0.00 | 0.00 | 1009.3 | ||
| 20260508233004 | 0 | 284.2 | 221.6 | 0.00 | 0.00 | 0.00 | 1009.3 | ||
| 20260508231502 | 0 | 284.2 | 221.6 | 0.00 | 0.00 | 0.00 | 1009.4 | ||
| 20260508230001 | 0 | 81 | 0.9 | 2.6 | 0.00 | 0.00 | 0.00 | 85 | 1009.4 |
| 20260508224620 | 78 | 81 | 0.0 | 3.5 | 0.00 | 0.00 | 0.00 | 85 | 1009.2 |
| 20260508223006 | 78 | 81 | 0.9 | 3.5 | 0.00 | 0.00 | 0.00 | 84 | 1008.9 |
| 20260508221501 | 78 | 52 | 1.7 | 3.5 | 0.00 | 0.00 | 0.00 | 84 | 1009.1 |
| 20260508220001 | 78 | 58 | 2.6 | 4.3 | 0.00 | 0.00 | 0.00 | 83 | 1009.0 |
| 20260508214601 | 78 | 47 | 1.7 | 4.3 | 0.00 | 0.00 | 0.00 | 83 | 1008.9 |
| 20260508213003 | 78 | 58 | 3.5 | 5.2 | 0.00 | 0.00 | 0.00 | 83 | 1008.9 |
| 20260508211603 | 79 | 63 | 2.6 | 4.3 | 0.00 | 0.00 | 0.00 | 84 | 1009.0 |
| 20260508210001 | 79 | 74 | 2.6 | 6.1 | 0.00 | 0.00 | 0.00 | 85 | 1009.2 |
| 20260508204501 | 79 | 69 | 2.6 | 7.0 | 0.00 | 0.00 | 0.00 | 88 | 1009.1 |
| 20260508203004 | 79 | 86 | 1.7 | 4.3 | 0.00 | 0.00 | 0.00 | 91 | 1009.3 |
| 20260508201502 | 80 | 83 | 1.7 | 7.0 | 0.00 | 0.00 | 0.00 | 90 | 1009.4 |
| 20260508200002 | 80 | 46 | 0.9 | 3.5 | 0.00 | 0.00 | 0.00 | 88 | 1009.4 |
| 20260508194502 | 80 | 54 | 1.7 | 4.3 | 0.00 | 0.00 | 0.00 | 86 | 1009.7 |
| 20260508193008 | 81 | 88 | 1.7 | 4.3 | 0.00 | 0.00 | 0.00 | 84 | 1009.7 |
| 20260508191501 | 81 | 45 | 1.7 | 6.1 | 0.00 | 0.00 | 0.00 | 82 | 1010.0 |
| 20260508184559 | 81 | 54 | 3.5 | 8.7 | 0.00 | 0.00 | 0.00 | 78 | 1010.0 |
| 20260508184504 | 81 | 55 | 2.6 | 7.0 | 0.00 | 0.00 | 0.00 | 78 | 1010.0 |
| 20260508181502 | 82 | 15 | 0.0 | 2.6 | 0.00 | 0.00 | 0.00 | 85 | 1010.3 |
| 20260508174614 | 81 | 89 | 2.6 | 7.0 | 0.00 | 0.00 | 0.00 | 91 | 1010.8 |
| 20260508173007 | 81 | 73 | 1.7 | 3.5 | 0.00 | 0.00 | 0.00 | 91 | 1010.6 |
| 20260508171506 | 82 | 24 | 0.9 | 2.6 | 0.00 | 0.00 | 0.00 | 90 | 1010.6 |
| 20260508170003 | 82 | 116 | 0.9 | 2.6 | 0.00 | 0.00 | 0.00 | 90 | 1010.7 |
| 20260508164503 | 82 | 116 | 0.0 | 1.7 | 0.00 | 0.00 | 0.00 | 89 | 1010.6 |
| 20260508163005 | 82 | 116 | 0.9 | 1.7 | 0.00 | 0.00 | 0.00 | 89 | 1010.5 |
| 20260508161504 | 82 | 138 | 0.0 | 1.7 | 0.00 | 0.00 | 0.00 | 89 | 1010.4 |
| 20260508160001 | 82 | 167 | 0.0 | 0.9 | 0.00 | 0.00 | 0.00 | 89 | 1010.3 |
| 20260508154502 | 82 | 248 | 0.0 | 1.7 | 0.00 | 0.00 | 0.00 | 89 | 1010.2 |
| 20260508153005 | 82 | 248 | 0.9 | 2.6 | 0.00 | 0.00 | 0.00 | 89 | 1010.0 |
| 20260508151503 | 82 | 273 | 0.0 | 1.7 | 0.00 | 0.00 | 0.00 | 88 | 1009.8 |
| 20260508150003 | 83 | 252 | 0.0 | 0.9 | 0.00 | 0.00 | 0.00 | 88 | 1009.7 |
| 20260508144502 | 83 | 280 | 0.0 | 1.7 | 0.00 | 0.00 | 0.00 | 87 | 1009.5 |
| 20260508143004 | 83 | 209 | 0.0 | 1.7 | 0.00 | 0.00 | 0.00 | 86 | 1009.2 |
| 20260508141505 | 83 | 275 | 0.0 | 2.6 | 0.00 | 0.00 | 0.00 | 85 | 1009.1 |
| 20260508140016 | 84 | 49 | 0.0 | 2.6 | 0.00 | 0.00 | 0.00 | 85 | 1008.9 |
| 20260508134505 | 84 | 180 | 0.9 | 4.3 | 0.00 | 0.00 | 0.00 | 84 | 1008.6 |
| 20260508133007 | 84 | 127 | 1.7 | 7.0 | 0.00 | 0.00 | 0.00 | 83 | 1008.2 |
| 20260508131504 | 85 | 241 | 2.6 | 7.0 | 0.00 | 0.00 | 0.00 | 82 | 1007.9 |
| 20260508130004 | 85 | 101 | 3.5 | 7.0 | 0.00 | 0.00 | 0.00 | 79 | 1007.6 |
| 20260508124504 | 86 | 142 | 3.5 | 7.0 | 0.00 | 0.00 | 0.00 | 77 | 1007.6 |
| 20260508123010 | 87 | 90 | 2.6 | 7.0 | 0.00 | 0.00 | 0.00 | 75 | 1007.3 |
| 20260508121505 | 89 | 46 | 2.6 | 6.1 | 0.00 | 0.00 | 0.00 | 74 | 1007.2 |
| 20260508120005 | 90 | 78 | 2.6 | 6.1 | 0.00 | 0.00 | 0.00 | 72 | 1007.0 |
| 20260508114504 | 92 | 127 | 1.7 | 5.2 | 0.00 | 0.00 | 0.00 | 70 | 1007.0 |
| 20260508113011 | 93 | 244 | 1.7 | 7.0 | 0.00 | 0.00 | 0.00 | 67 | 1006.8 |
| 20260508111504 | 94 | 243 | 2.6 | 6.1 | 0.00 | 0.00 | 0.00 | 64 | 1006.8 |
| 20260508110004 | 94 | 303 | 1.7 | 6.1 | 0.00 | 0.00 | 0.00 | 63 | 1006.6 |
| 20260508104504 | 95 | 257 | 3.5 | 7.0 | 0.00 | 0.00 | 0.00 | 59 | 1006.7 |
| 20260508103007 | 96 | 324 | 0.0 | 4.3 | 0.00 | 0.00 | 0.00 | 57 | 1006.8 |
| 20260508101504 | 96 | 275 | 0.0 | 5.2 | 0.00 | 0.00 | 0.00 | 58 | 1007.1 |
| 20260508100006 | 96 | 284 | 1.7 | 7.0 | 0.00 | 0.00 | 0.00 | 59 | 1007.1 |
| 20260508094508 | 96 | 87 | 0.9 | 5.2 | 0.00 | 0.00 | 0.00 | 58 | 1007.2 |
| 20260508093011 | 95 | 69 | 1.7 | 3.5 | 0.00 | 0.00 | 0.00 | 59 | 1007.5 |
| 20260508091503 | 95 | 104 | 2.6 | 5.2 | 0.00 | 0.00 | 0.00 | 59 | 1007.9 |
| 20260508090005 | 95 | 259 | 2.6 | 7.0 | 0.00 | 0.00 | 0.00 | 60 | 1008.1 |
| 20260508084504 | 96 | 47 | 0.9 | 7.0 | 0.00 | 0.00 | 0.00 | 60 | 1008.3 |
| 20260508083007 | 95 | 250 | 2.6 | 7.0 | 0.00 | 0.00 | 0.00 | 62 | 1008.5 |
| 20260508081518 | 95 | 211 | 3.5 | 8.7 | 0.00 | 0.00 | 0.00 | 59 | 1008.7 |
| 20260508080004 | 96 | 96 | 0.9 | 7.8 | 0.00 | 0.00 | 0.00 | 59 | 1008.9 |
| 20260508074504 | 95 | 270 | 1.7 | 3.5 | 0.00 | 0.00 | 0.00 | 61 | 1009.2 |
| 20260508073007 | 94 | 57 | 1.7 | 6.1 | 0.00 | 0.00 | 0.00 | 62 | 1009.4 |
| 20260508070004 | 93 | 249 | 1.7 | 10.4 | 0.00 | 0.00 | 0.00 | 66 | 1010.0 |
| 20260508064505 | 93 | 279 | 3.5 | 7.8 | 0.00 | 0.00 | 0.00 | 67 | 1010.0 |
| 20260508063006 | 92 | 315 | 1.7 | 8.7 | 0.00 | 0.00 | 0.00 | 68 | 1010.1 |
| 20260508061504 | 93 | 283 | 2.6 | 8.7 | 0.00 | 0.00 | 0.00 | 68 | 1010.4 |
| 20260508060002 | 92 | 298 | 4.3 | 8.7 | 0.00 | 0.00 | 0.00 | 70 | 1010.7 |
| 20260508054503 | 90 | 266 | 1.7 | 10.4 | 0.00 | 0.00 | 0.00 | 71 | 1010.8 |
| 20260508053006 | 91 | 250 | 4.3 | 8.7 | 0.00 | 0.00 | 0.00 | 70 | 1010.8 |
| 20260508051503 | 92 | 319 | 1.7 | 5.2 | 0.00 | 0.00 | 0.00 | 70 | 1010.8 |
| 20260508050005 | 92 | 47 | 1.7 | 5.2 | 0.00 | 0.00 | 0.00 | 71 | 1011.0 |
| 20260508044505 | 91 | 184 | 1.7 | 7.0 | 0.00 | 0.00 | 0.00 | 72 | 1011.1 |